Location: Boiro
(42.6475°N, 8.8834°W)
Time: 17:19:44
(UTC+01:00)

Tiros 1 - Pass Details

Date: 10 December 2021
Orbit: 630 x 663 km, 48.4° (Epoch: 20 January)

Event Time Altitude Azimuth Distance (km) Brightness Sun altitude
Rises 01:18:28 0° 284° (WNW) 2,953 - -70.2°
Reaches altitude 10° 01:21:50 10° 259° (W) 2,047 - -70.2°
Maximum altitude 01:24:13 14° 228° (SW) 1,802 - -70.2°
Drops below altitude 10° 01:26:37 10° 197° (SSW) 2,051 - -70.3°
Sets 01:30:01 0° 172° (S) 2,964 - -70.3°
